| time (UTC) | temp C | wind direction | speed KPH | gust KPH | rain 1hr cm | rain 24hr cm | rain mn cm | humidity % | barometer mb |
| 20260906040237 | 22 | 291 | 0.0 | 0.0 | 0.00 | 0.00 | 0.00 | 91 | 1046.1 |
| 20260906035732 | 22 | 291 | 0.0 | 0.0 | 0.00 | 0.00 | 0.00 | 91 | 1045.8 |
| 20260906035228 | 22 | 291 | 0.0 | 0.0 | 0.00 | 0.00 | 0.00 | 91 | 1045.6 |
| 20260906034728 | 22 | 291 | 0.0 | 0.0 | 0.00 | 0.00 | 0.00 | 90 | 1045.6 |
| 20260906034223 | 22 | 325 | 0.0 | 0.0 | 0.00 | 0.00 | 0.00 | 91 | 1045.5 |
| 20260906033719 | 22 | 62 | 0.0 | 1.6 | 0.00 | 0.00 | 0.00 | 91 | 1045.3 |
| 20260906033218 | 22 | 63 | 0.0 | 1.6 | 0.00 | 0.00 | 0.00 | 92 | 1045.4 |
| 20260906032715 | 22 | 64 | 1.6 | 3.2 | 0.00 | 0.00 | 0.00 | 95 | 1045.7 |
| 20260906032215 | 21 | 67 | 6.4 | 6.4 | 0.00 | 0.00 | 0.00 | 96 | 1045.6 |
| 20260906031710 | 21 | 275 | 0.0 | 0.0 | 0.00 | 0.00 | 0.00 | 95 | 1045.2 |
| 20260906031206 | 21 | 275 | 0.0 | 0.0 | 0.00 | 0.00 | 0.00 | 95 | 1045.3 |
| 20260906030705 | 22 | 275 | 0.0 | 0.0 | 0.00 | 0.00 | 0.00 | 95 | 1045.1 |
| 20260906030200 | 22 | 275 | 0.0 | 0.0 | 0.00 | 0.00 | 0.00 | 95 | 1045.1 |
| 20260906025700 | 22 | 275 | 0.0 | 0.0 | 0.00 | 0.00 | 0.00 | 95 | 1045.1 |
| 20260906025200 | 22 | 275 | 0.0 | 0.0 | 0.00 | 0.00 | 0.00 | 95 | 1045.3 |
| 20260906024654 | 22 | 275 | 0.0 | 0.0 | 0.00 | 0.00 | 0.00 | 95 | 1045.3 |
| 20260906024153 | 22 | 275 | 0.0 | 0.0 | 0.00 | 0.00 | 0.00 | 95 | 1045.5 |
| 20260906023649 | 22 | 275 | 0.0 | 0.0 | 0.00 | 0.00 | 0.00 | 95 | 1045.5 |
| 20260906023149 | 22 | 275 | 0.0 | 0.0 | 0.00 | 0.00 | 0.00 | 95 | 1045.3 |
| 20260906022644 | 22 | 275 | 0.0 | 0.0 | 0.00 | 0.00 | 0.00 | 95 | 1045.4 |
| 20260906022140 | 22 | 275 | 0.0 | 0.0 | 0.00 | 0.00 | 0.00 | 95 | 1045.5 |
| 20260906021636 | 22 | 275 | 0.0 | 0.0 | 0.00 | 0.00 | 0.00 | 94 | 1045.5 |
| 20260906021134 | 23 | 275 | 0.0 | 0.0 | 0.00 | 0.00 | 0.00 | 95 | 1045.4 |
| 20260906020635 | 23 | 275 | 0.0 | 0.0 | 0.00 | 0.00 | 0.00 | 95 | 1045.1 |
| 20260906020129 | 23 | 275 | 0.0 | 0.0 | 0.00 | 0.00 | 0.00 | 95 | 1045.1 |
| 20260906015624 | 23 | 275 | 0.0 | 0.0 | 0.00 | 0.00 | 0.00 | 94 | 1045.0 |
| 20260906015122 | 23 | 275 | 0.0 | 0.0 | 0.00 | 0.00 | 0.00 | 94 | 1045.2 |
| 20260906014623 | 23 | 275 | 0.0 | 0.0 | 0.00 | 0.00 | 0.00 | 94 | 1045.3 |
| 20260906014119 | 23 | 275 | 0.0 | 0.0 | 0.00 | 0.00 | 0.00 | 94 | 1045.3 |
| 20260906013614 | 23 | 271 | 0.0 | 0.0 | 0.00 | 0.00 | 0.00 | 94 | 1045.0 |
| 20260906013109 | 23 | 271 | 1.6 | 1.6 | 0.00 | 0.00 | 0.00 | 94 | 1045.0 |
| 20260906012605 | 23 | 53 | 0.0 | 1.6 | 0.00 | 0.00 | 0.00 | 94 | 1044.8 |
| 20260906012105 | 23 | 259 | 0.0 | 0.0 | 0.00 | 0.00 | 0.00 | 93 | 1044.8 |
| 20260906011601 | 23 | 257 | 0.0 | 0.0 | 0.00 | 0.00 | 0.00 | 93 | 1044.8 |
| 20260906011101 | 23 | 243 | 0.0 | 0.0 | 0.00 | 0.00 | 0.00 | 93 | 1044.9 |
| 20260906010556 | 24 | 243 | 0.0 | 0.0 | 0.00 | 0.00 | 0.00 | 92 | 1044.5 |
| 20260906010052 | 24 | 243 | 0.0 | 0.0 | 0.00 | 0.00 | 0.00 | 92 | 1044.5 |
| 20260906005551 | 24 | 243 | 0.0 | 0.0 | 0.00 | 0.00 | 0.00 | 92 | 1044.6 |
| 20260906005050 | 25 | 243 | 0.0 | 0.0 | 0.00 | 0.00 | 0.00 | 92 | 1044.3 |
| 20260906004550 | 25 | 243 | 0.0 | 0.0 | 0.00 | 0.00 | 0.00 | 91 | 1044.3 |
| 20260906004045 | 25 | 243 | 0.0 | 0.0 | 0.00 | 0.00 | 0.00 | 90 | 1044.6 |
| 20260906003540 | 25 | 243 | 0.0 | 0.0 | 0.00 | 0.00 | 0.00 | 90 | 1044.8 |
| 20260906003036 | 25 | 243 | 0.0 | 0.0 | 0.00 | 0.00 | 0.00 | 90 | 1044.7 |
| 20260906002531 | 25 | 243 | 0.0 | 0.0 | 0.00 | 0.00 | 0.00 | 89 | 1044.4 |
| 20260906002025 | 26 | 243 | 0.0 | 0.0 | 0.00 | 0.00 | 0.00 | 89 | 1044.8 |
| 20260906001521 | 26 | 243 | 0.0 | 0.0 | 0.00 | 0.00 | 0.00 | 88 | 1044.7 |
| 20260906001015 | 26 | 243 | 0.0 | 0.0 | 0.00 | 0.00 | 0.00 | 87 | 1044.6 |
| 20260906000511 | 26 | 243 | 0.0 | 0.0 | 0.00 | 0.00 | 0.00 | 86 | 1044.8 |
| 20260906000006 | 27 | 243 | 0.0 | 0.0 | 0.00 | 0.00 | 0.00 | 85 | 1044.8 |
| 20260905235505 | 27 | 243 | 0.0 | 0.0 | 0.00 | 0.00 | 0.00 | 85 | 1044.8 |
| 20260905235001 | 27 | 243 | 0.0 | 0.0 | 0.00 | 0.00 | 0.00 | 83 | 1045.0 |
| 20260905234456 | 28 | 243 | 0.0 | 0.0 | 0.00 | 0.00 | 0.00 | 81 | 1045.0 |
| 20260905233956 | 28 | 243 | 0.0 | 0.0 | 0.00 | 0.00 | 0.00 | 79 | 1045.1 |
| 20260905233452 | 28 | 243 | 0.0 | 0.0 | 0.00 | 0.00 | 0.00 | 76 | 1045.0 |
| 20260905232950 | 28 | 243 | 0.0 | 0.0 | 0.00 | 0.00 | 0.00 | 76 | 1045.0 |
| 20260905232447 | 29 | 243 | 0.0 | 0.0 | 0.00 | 0.00 | 0.00 | 74 | 1045.3 |
| 20260905231942 | 29 | 243 | 0.0 | 0.0 | 0.00 | 0.00 | 0.00 | 73 | 1045.1 |
| 20260905231438 | 30 | 243 | 0.0 | 0.0 | 0.00 | 0.00 | 0.00 | 70 | 1045.1 |
| 20260905230934 | 30 | 243 | 0.0 | 0.0 | 0.00 | 0.00 | 0.00 | 70 | 1045.3 |
| 20260905230432 | 30 | 243 | 0.0 | 0.0 | 0.00 | 0.00 | 0.00 | 69 | 1045.2 |
| 20260905225931 | 31 | 243 | 0.0 | 0.0 | 0.00 | 0.00 | 0.00 | 68 | 1045.1 |
| 20260905225426 | 31 | 243 | 0.0 | 0.0 | 0.00 | 0.00 | 0.00 | 65 | 1045.1 |
| 20260905224921 | 31 | 243 | 0.0 | 0.0 | 0.00 | 0.00 | 0.00 | 61 | 1044.8 |
| 20260905224417 | 32 | 243 | 0.0 | 0.0 | 0.00 | 0.00 | 0.00 | 60 | 1045.1 |
| 20260905223916 | 32 | 243 | 0.0 | 0.0 | 0.00 | 0.00 | 0.00 | 58 | 1044.9 |
| 20260905223415 | 34 | 238 | 1.6 | 1.6 | 0.00 | 0.00 | 0.00 | 53 | 1045.0 |
| 20260905222914 | 35 | 78 | 1.6 | 3.2 | 0.00 | 0.00 | 0.00 | 48 | 1045.0 |
| 20260905222414 | 36 | 97 | 0.0 | 0.0 | 0.00 | 0.00 | 0.00 | 49 | 1044.8 |
| 20260905221910 | 36 | 97 | 0.0 | 0.0 | 0.00 | 0.00 | 0.00 | 51 | 1045.0 |
| 20260905221406 | 36 | 97 | 0.0 | 0.0 | 0.00 | 0.00 | 0.00 | 50 | 1045.0 |
| 20260905220902 | 36 | 97 | 0.0 | 0.0 | 0.00 | 0.00 | 0.00 | 46 | 1044.9 |
| 20260905220358 | 35 | 98 | 0.0 | 0.0 | 0.00 | 0.00 | 0.00 | 49 | 1045.0 |
| 20260905215857 | 36 | 97 | 0.0 | 0.0 | 0.00 | 0.00 | 0.00 | 51 | 1045.0 |
| 20260905215353 | 36 | 97 | 0.0 | 1.6 | 0.00 | 0.00 | 0.00 | 47 | 1044.7 |
| 20260905214849 | 35 | 90 | 0.0 | 0.0 | 0.00 | 0.00 | 0.00 | 48 | 1044.6 |
| 20260905214344 | 36 | 73 | 1.6 | 3.2 | 0.00 | 0.00 | 0.00 | 45 | 1044.8 |
| 20260905213839 | 37 | 352 | 0.0 | 0.0 | 0.00 | 0.00 | 0.00 | 45 | 1044.7 |
| 20260905213335 | 36 | 352 | 0.0 | 0.0 | 0.00 | 0.00 | 0.00 | 48 | 1044.6 |
| 20260905212835 | 36 | 281 | 0.0 | 0.0 | 0.00 | 0.00 | 0.00 | 47 | 1044.8 |
| 20260905212330 | 36 | 278 | 0.0 | 1.6 | 0.00 | 0.00 | 0.00 | 48 | 1044.7 |
| 20260905211830 | 36 | 272 | 0.0 | 1.6 | 0.00 | 0.00 | 0.00 | 46 | 1044.7 |
| 20260905211325 | 36 | 262 | 1.6 | 1.6 | 0.00 | 0.00 | 0.00 | 46 | 1044.7 |
| 20260905210822 | 37 | 263 | 1.6 | 1.6 | 0.00 | 0.00 | 0.00 | 46 | 1044.8 |
| 20260905210321 | 36 | 311 | 0.0 | 0.0 | 0.00 | 0.00 | 0.00 | 47 | 1045.0 |
| 20260905205820 | 36 | 74 | 1.6 | 1.6 | 0.00 | 0.00 | 0.00 | 46 | 1044.7 |
| 20260905205315 | 36 | 311 | 1.6 | 3.2 | 0.00 | 0.00 | 0.00 | 46 | 1044.9 |
| 20260905204814 | 36 | 290 | 1.6 | 3.2 | 0.00 | 0.00 | 0.00 | 44 | 1044.7 |
| 20260905204311 | 36 | 270 | 0.0 | 1.6 | 0.00 | 0.00 | 0.00 | 47 | 1044.7 |
| 20260905203809 | 36 | 265 | 1.6 | 3.2 | 0.00 | 0.00 | 0.00 | 46 | 1044.8 |
| 20260905203306 | 37 | 293 | 1.6 | 1.6 | 0.00 | 0.00 | 0.00 | 45 | 1044.9 |
| 20260905202801 | 37 | 254 | 3.2 | 3.2 | 0.00 | 0.00 | 0.00 | 45 | 1045.0 |
| 20260905202255 | 37 | 204 | 0.0 | 1.6 | 0.00 | 0.00 | 0.00 | 41 | 1045.3 |
| 20260905201751 | 37 | 266 | 1.6 | 1.6 | 0.00 | 0.00 | 0.00 | 40 | 1045.6 |
| 20260905201246 | 37 | 250 | 0.0 | 1.6 | 0.00 | 0.00 | 0.00 | 42 | 1045.1 |
| 20260905200741 | 36 | 151 | 1.6 | 1.6 | 0.00 | 0.00 | 0.00 | 43 | 1045.4 |
| 20260905200237 | 36 | 243 | 1.6 | 3.2 | 0.00 | 0.00 | 0.00 | 45 | 1045.7 |
| 20260905195735 | 36 | 231 | 0.0 | 0.0 | 0.00 | 0.00 | 0.00 | 43 | 1045.5 |
| 20260905195230 | 36 | 250 | 1.6 | 4.8 | 0.00 | 0.00 | 0.00 | 45 | 1045.5 |
| 20260905194726 | 36 | 226 | 0.0 | 1.6 | 0.00 | 0.00 | 0.00 | 44 | 1045.6 |
| 20260905194225 | 36 | 302 | 1.6 | 1.6 | 0.00 | 0.00 | 0.00 | 42 | 1045.8 |
| 20260905193725 | 36 | 154 | 0.0 | 1.6 | 0.00 | 0.00 | 0.00 | 42 | 1045.7 |
| 20260905193220 | 36 | 331 | 0.0 | 0.0 | 0.00 | 0.00 | 0.00 | 49 | 1045.8 |
| 20260905192715 | 36 | 255 | 0.0 | 1.6 | 0.00 | 0.00 | 0.00 | 46 | 1045.8 |
| 20260905192212 | 35 | 29 | 1.6 | 3.2 | 0.00 | 0.00 | 0.00 | 47 | 1045.9 |
| 20260905191711 | 35 | 281 | 1.6 | 4.8 | 0.00 | 0.00 | 0.00 | 48 | 1046.1 |
| 20260905191209 | 35 | 223 | 0.0 | 1.6 | 0.00 | 0.00 | 0.00 | 44 | 1046.0 |
| 20260905190708 | 35 | 272 | 3.2 | 3.2 | 0.00 | 0.00 | 0.00 | 45 | 1046.5 |
| 20260905190207 | 35 | 250 | 3.2 | 3.2 | 0.00 | 0.00 | 0.00 | 44 | 1046.1 |
| 20260905185706 | 35 | 201 | 1.6 | 3.2 | 0.00 | 0.00 | 0.00 | 49 | 1046.3 |
| 20260905185201 | 34 | 338 | 0.0 | 1.6 | 0.00 | 0.00 | 0.00 | 49 | 1046.4 |
| 20260905184700 | 34 | 186 | 3.2 | 3.2 | 0.00 | 0.00 | 0.00 | 47 | 1046.4 |
| 20260905184159 | 35 | 219 | 1.6 | 3.2 | 0.00 | 0.00 | 0.00 | 49 | 1046.4 |
| 20260905183654 | 34 | 262 | 1.6 | 1.6 | 0.00 | 0.00 | 0.00 | 51 | 1046.5 |
| 20260905183149 | 35 | 240 | 0.0 | 6.4 | 0.00 | 0.00 | 0.00 | 47 | 1046.5 |
| 20260905182648 | 35 | 222 | 1.6 | 1.6 | 0.00 | 0.00 | 0.00 | 50 | 1046.8 |
| 20260905182148 | 35 | 230 | 3.2 | 3.2 | 0.00 | 0.00 | 0.00 | 46 | 1046.8 |
| 20260905181644 | 35 | 199 | 0.0 | 1.6 | 0.00 | 0.00 | 0.00 | 51 | 1047.1 |
| 20260905181142 | 34 | 161 | 1.6 | 1.6 | 0.00 | 0.00 | 0.00 | 52 | 1047.0 |
| 20260905180637 | 33 | 205 | 0.0 | 0.0 | 0.00 | 0.00 | 0.00 | 52 | 1047.3 |
| 20260905180133 | 33 | 153 | 3.2 | 3.2 | 0.00 | 0.00 | 0.00 | 51 | 1047.3 |
| 20260905175632 | 33 | 182 | 3.2 | 3.2 | 0.00 | 0.00 | 0.00 | 48 | 1047.4 |
| 20260905175127 | 33 | 260 | 1.6 | 4.8 | 0.00 | 0.00 | 0.00 | 47 | 1047.2 |
| 20260905174623 | 33 | 310 | 1.6 | 6.4 | 0.00 | 0.00 | 0.00 | 47 | 1047.3 |
| 20260905174118 | 33 | 161 | 1.6 | 3.2 | 0.00 | 0.00 | 0.00 | 47 | 1047.1 |
| 20260905173615 | 32 | 160 | 1.6 | 4.8 | 0.00 | 0.00 | 0.00 | 51 | 1047.2 |
| 20260905173110 | 33 | 139 | 3.2 | 4.8 | 0.00 | 0.00 | 0.00 | 50 | 1047.5 |
| 20260905172608 | 33 | 213 | 1.6 | 6.4 | 0.00 | 0.00 | 0.00 | 52 | 1047.4 |
| 20260905172103 | 32 | 184 | 4.8 | 4.8 | 0.00 | 0.00 | 0.00 | 51 | 1047.4 |
| 20260905171600 | 32 | 301 | 3.2 | 6.4 | 0.00 | 0.00 | 0.00 | 51 | 1047.5 |
| 20260905171056 | 31 | 146 | 0.0 | 1.6 | 0.00 | 0.00 | 0.00 | 53 | 1047.7 |
| 20260905170552 | 31 | 75 | 4.8 | 6.4 | 0.00 | 0.00 | 0.00 | 57 | 1047.8 |
| 20260905170047 | 31 | 115 | 4.8 | 9.7 | 0.00 | 0.00 | 0.00 | 54 | 1047.5 |
| 20260905165542 | 31 | 164 | 3.2 | 3.2 | 0.00 | 0.00 | 0.00 | 53 | 1047.9 |
| 20260905165037 | 31 | 106 | 9.7 | 12.9 | 0.00 | 0.00 | 0.00 | 50 | 1047.7 |
| 20260905164537 | 31 | 81 | 3.2 | 4.8 | 0.00 | 0.00 | 0.00 | 55 | 1047.6 |
| 20260905164032 | 31 | 10 | 3.2 | 4.8 | 0.00 | 0.00 | 0.00 | 53 | 1047.5 |
| 20260905163528 | 31 | 91 | 1.6 | 3.2 | 0.00 | 0.00 | 0.00 | 55 | 1047.5 |
| 20260905163024 | 30 | 279 | 3.2 | 3.2 | 0.00 | 0.00 | 0.00 | 60 | 1047.5 |
| 20260905162520 | 31 | 239 | 3.2 | 9.7 | 0.00 | 0.00 | 0.00 | 55 | 1047.5 |
| 20260905162015 | 31 | 256 | 4.8 | 6.4 | 0.00 | 0.00 | 0.00 | 52 | 1047.6 |
| 20260905161514 | 31 | 228 | 4.8 | 4.8 | 0.00 | 0.00 | 0.00 | 54 | 1047.5 |
| 20260905161013 | 31 | 184 | 0.0 | 1.6 | 0.00 | 0.00 | 0.00 | 61 | 1048.0 |
| 20260905160511 | 30 | 280 | 1.6 | 3.2 | 0.00 | 0.00 | 0.00 | 56 | 1048.0 |
| 20260905160012 | 30 | 322 | 0.0 | 1.6 | 0.00 | 0.00 | 0.00 | 61 | 1048.0 |
| 20260905155511 | 30 | 257 | 9.7 | 11.3 | 0.00 | 0.00 | 0.00 | 58 | 1048.3 |
| 20260905155010 | 30 | 280 | 3.2 | 3.2 | 0.00 | 0.00 | 0.00 | 60 | 1048.1 |
| 20260905154505 | 30 | 267 | 1.6 | 1.6 | 0.00 | 0.00 | 0.00 | 62 | 1048.2 |
| 20260905154001 | 29 | 92 | 3.2 | 4.8 | 0.00 | 0.00 | 0.00 | 62 | 1048.1 |
| 20260905153457 | 29 | 128 | 4.8 | 6.4 | 0.00 | 0.00 | 0.00 | 64 | 1048.3 |
| 20260905152956 | 29 | 248 | 1.6 | 4.8 | 0.00 | 0.00 | 0.00 | 65 | 1048.3 |
| 20260905152456 | 29 | 110 | 1.6 | 4.8 | 0.00 | 0.00 | 0.00 | 63 | 1048.3 |
| 20260905151957 | 29 | 140 | 1.6 | 1.6 | 0.00 | 0.00 | 0.00 | 69 | 1048.6 |
| 20260905151452 | 28 | 156 | 6.4 | 6.4 | 0.00 | 0.00 | 0.00 | 65 | 1048.6 |
| 20260905150947 | 28 | 144 | 3.2 | 3.2 | 0.00 | 0.00 | 0.00 | 70 | 1048.5 |
| 20260905150442 | 27 | 198 | 3.2 | 4.8 | 0.00 | 0.00 | 0.00 | 67 | 1048.5 |
| 20260905145938 | 27 | 145 | 0.0 | 3.2 | 0.00 | 0.00 | 0.00 | 71 | 1048.5 |
| 20260905145433 | 27 | 99 | 3.2 | 6.4 | 0.00 | 0.00 | 0.00 | 72 | 1048.6 |
| 20260905144932 | 27 | 155 | 1.6 | 9.7 | 0.00 | 0.00 | 0.00 | 72 | 1048.8 |
| 20260905144428 | 27 | 154 | 4.8 | 9.7 | 0.00 | 0.00 | 0.00 | 70 | 1048.8 |
| 20260905143927 | 27 | 102 | 4.8 | 9.7 | 0.00 | 0.00 | 0.00 | 70 | 1049.0 |
| 20260905143426 | 27 | 139 | 6.4 | 6.4 | 0.00 | 0.00 | 0.00 | 70 | 1048.9 |
| 20260905142927 | 27 | 148 | 4.8 | 11.3 | 0.00 | 0.00 | 0.00 | 71 | 1048.9 |
| 20260905142426 | 27 | 90 | 4.8 | 9.7 | 0.00 | 0.00 | 0.00 | 68 | 1048.9 |
| 20260905141922 | 27 | 92 | 8.0 | 11.3 | 0.00 | 0.00 | 0.00 | 71 | 1048.7 |
| 20260905141422 | 26 | 108 | 3.2 | 4.8 | 0.00 | 0.00 | 0.00 | 74 | 1048.8 |
| 20260905140918 | 25 | 153 | 6.4 | 12.9 | 0.00 | 0.00 | 0.00 | 77 | 1048.6 |
| 20260905140413 | 25 | 99 | 3.2 | 6.4 | 0.00 | 0.00 | 0.00 | 80 | 1048.8 |
| 20260905135912 | 24 | 103 | 6.4 | 9.7 | 0.00 | 0.00 | 0.00 | 78 | 1048.6 |
| 20260905135408 | 24 | 92 | 3.2 | 6.4 | 0.00 | 0.00 | 0.00 | 81 | 1048.9 |
| 20260905134903 | 24 | 39 | 4.8 | 9.7 | 0.00 | 0.00 | 0.00 | 80 | 1049.2 |
| 20260905134402 | 23 | 347 | 3.2 | 11.3 | 0.00 | 0.00 | 0.00 | 83 | 1049.0 |
| 20260905133857 | 23 | 118 | 6.4 | 6.4 | 0.00 | 0.00 | 0.00 | 83 | 1049.1 |
| 20260905133352 | 23 | 59 | 4.8 | 9.7 | 0.00 | 0.00 | 0.00 | 84 | 1049.1 |
| 20260905132851 | 23 | 91 | 6.4 | 6.4 | 0.00 | 0.00 | 0.00 | 84 | 1049.2 |
| 20260905132347 | 23 | 70 | 8.0 | 24.1 | 0.00 | 0.00 | 0.00 | 84 | 1049.3 |
| 20260905131846 | 23 | 144 | 4.8 | 9.7 | 0.00 | 0.00 | 0.00 | 84 | 1049.3 |
| 20260905131342 | 23 | 61 | 3.2 | 9.7 | 0.00 | 0.00 | 0.00 | 83 | 1049.7 |
| 20260905130837 | 23 | 18 | 11.3 | 20.9 | 0.00 | 0.00 | 0.00 | 83 | 1049.4 |
| 20260905130336 | 23 | 92 | 11.3 | 16.1 | 0.00 | 0.00 | 0.00 | 82 | 1049.1 |
| 20260905125831 | 23 | 83 | 3.2 | 11.3 | 0.00 | 0.00 | 0.00 | 84 | 1049.3 |
| 20260905125326 | 23 | 92 | 3.2 | 4.8 | 0.00 | 0.00 | 0.00 | 85 | 1049.2 |
| 20260905124822 | 22 | 65 | 4.8 | 6.4 | 0.00 | 0.00 | 0.00 | 87 | 1049.1 |
| 20260905124318 | 22 | 81 | 3.2 | 3.2 | 0.00 | 0.00 | 0.00 | 87 | 1048.4 |
| 20260905123813 | 22 | 84 | 1.6 | 4.8 | 0.00 | 0.00 | 0.00 | 86 | 1048.4 |
| 20260905123310 | 22 | 115 | 0.0 | 1.6 | 0.00 | 0.00 | 0.00 | 87 | 1048.7 |
| 20260905122809 | 22 | 231 | 1.6 | 1.6 | 0.00 | 0.00 | 0.00 | 88 | 1048.5 |
| 20260905122309 | 22 | 145 | 0.0 | 3.2 | 0.00 | 0.00 | 0.00 | 88 | 1048.5 |
| 20260905121804 | 22 | 131 | 1.6 | 3.2 | 0.00 | 0.00 | 0.00 | 88 | 1048.3 |
| 20260905121301 | 22 | 192 | 0.0 | 1.6 | 0.00 | 0.00 | 0.00 | 90 | 1048.1 |
| 20260905120759 | 22 | 43 | 0.0 | 1.6 | 0.00 | 0.00 | 0.00 | 91 | 1048.6 |
| 20260905120259 | 22 | 329 | 0.0 | 0.0 | 0.00 | 0.00 | 0.00 | 93 | 1048.6 |
| 20260905115755 | 22 | 277 | 0.0 | 1.6 | 0.00 | 0.00 | 0.00 | 93 | 1048.4 |
| 20260905115254 | 23 | 277 | 0.0 | 0.0 | 0.00 | 0.00 | 0.00 | 93 | 1048.4 |
| 20260905114754 | 23 | 275 | 1.6 | 1.6 | 0.00 | 0.00 | 0.00 | 92 | 1048.2 |
| 20260905114253 | 23 | 282 | 0.0 | 0.0 | 0.00 | 0.00 | 0.00 | 92 | 1048.1 |
| 20260905113752 | 23 | 66 | 0.0 | 1.6 | 0.00 | 0.00 | 0.00 | 93 | 1048.0 |
| 20260905113248 | 22 | 66 | 0.0 | 0.0 | 0.00 | 0.00 | 0.00 | 95 | 1048.2 |
| 20260905112744 | 22 | 68 | 3.2 | 6.4 | 0.00 | 0.00 | 0.00 | 98 | 1048.1 |
| 20260905112244 | 22 | 22 | 1.6 | 3.2 | 0.00 | 0.00 | 0.00 | 99 | 1048.4 |
| 20260905111739 | 22 | 76 | 3.2 | 4.8 | 0.00 | 0.00 | 0.00 | 99 | 1048.2 |
| 20260905111238 | 22 | 86 | 3.2 | 3.2 | 0.00 | 0.00 | 0.00 | 99 | 1048.0 |
| 20260905110738 | 22 | 358 | 0.0 | 1.6 | 0.00 | 0.00 | 0.00 | 99 | 1047.8 |
| 20260905110232 | 22 | 358 | 0.0 | 0.0 | 0.00 | 0.00 | 0.00 | 98 | 1047.5 |
| 20260905105728 | 22 | 358 | 0.0 | 0.0 | 0.00 | 0.00 | 0.00 | 98 | 1047.4 |
| 20260905105227 | 22 | 358 | 0.0 | 0.0 | 0.00 | 0.00 | 0.00 | 98 | 1047.5 |
| 20260905104721 | 22 | 358 | 0.0 | 0.0 | 0.00 | 0.00 | 0.00 | 98 | 1047.0 |
| 20260905104218 | 21 | 358 | 0.0 | 0.0 | 0.00 | 0.00 | 0.00 | 98 | 1047.0 |
| 20260905103712 | 21 | 358 | 0.0 | 0.0 | 0.00 | 0.00 | 0.00 | 98 | 1046.8 |
| 20260905103208 | 21 | 358 | 0.0 | 0.0 | 0.00 | 0.00 | 0.00 | 98 | 1046.8 |
| 20260905102704 | 21 | 358 | 0.0 | 0.0 | 0.00 | 0.00 | 0.00 | 98 | 1046.8 |
| 20260905102200 | 21 | 358 | 0.0 | 0.0 | 0.00 | 0.00 | 0.00 | 98 | 1046.7 |
| 20260905101659 | 21 | 358 | 0.0 | 0.0 | 0.00 | 0.00 | 0.00 | 98 | 1046.7 |
| 20260905101157 | 21 | 358 | 0.0 | 0.0 | 0.00 | 0.00 | 0.00 | 98 | 1046.8 |
| 20260905100654 | 21 | 358 | 0.0 | 0.0 | 0.00 | 0.00 | 0.00 | 98 | 1046.8 |
| 20260905100148 | 21 | 358 | 0.0 | 0.0 | 0.00 | 0.00 | 0.00 | 98 | 1046.8 |
| 20260905095647 | 21 | 358 | 0.0 | 0.0 | 0.00 | 0.00 | 0.00 | 98 | 1046.9 |
| 20260905095142 | 21 | 358 | 0.0 | 0.0 | 0.00 | 0.00 | 0.00 | 98 | 1047.0 |
| 20260905094638 | 21 | 358 | 0.0 | 0.0 | 0.00 | 0.00 | 0.00 | 98 | 1046.8 |
| 20260905094137 | 21 | 358 | 0.0 | 0.0 | 0.00 | 0.00 | 0.00 | 98 | 1046.7 |
| 20260905093632 | 21 | 358 | 0.0 | 0.0 | 0.00 | 0.00 | 0.00 | 98 | 1046.8 |
| 20260905093128 | 21 | 358 | 0.0 | 0.0 | 0.00 | 0.00 | 0.00 | 98 | 1046.8 |
| 20260905092628 | 21 | 358 | 0.0 | 0.0 | 0.00 | 0.00 | 0.00 | 98 | 1046.5 |
| 20260905092124 | 21 | 358 | 0.0 | 0.0 | 0.00 | 0.00 | 0.00 | 98 | 1046.4 |
| 20260905091624 | 21 | 358 | 0.0 | 0.0 | 0.00 | 0.00 | 0.00 | 98 | 1046.7 |
| 20260905091123 | 21 | 358 | 0.0 | 0.0 | 0.00 | 0.00 | 0.00 | 98 | 1046.3 |
| 20260905090618 | 21 | 358 | 0.0 | 0.0 | 0.00 | 0.00 | 0.00 | 98 | 1046.8 |
| 20260905090114 | 21 | 358 | 0.0 | 0.0 | 0.00 | 0.00 | 0.00 | 98 | 1046.5 |
| 20260905085612 | 21 | 358 | 0.0 | 0.0 | 0.00 | 0.00 | 0.00 | 98 | 1046.7 |
| 20260905085108 | 21 | 358 | 0.0 | 0.0 | 0.00 | 0.00 | 0.00 | 98 | 1046.8 |
| 20260905084608 | 21 | 358 | 0.0 | 0.0 | 0.00 | 0.00 | 0.00 | 98 | 1046.5 |
| 20260905084103 | 21 | 358 | 0.0 | 0.0 | 0.00 | 0.00 | 0.00 | 98 | 1046.5 |
| 20260905083602 | 21 | 358 | 0.0 | 0.0 | 0.00 | 0.00 | 0.00 | 98 | 1046.3 |
| 20260905083059 | 21 | 358 | 0.0 | 0.0 | 0.00 | 0.00 | 0.00 | 98 | 1046.4 |
| 20260905082554 | 21 | 358 | 0.0 | 0.0 | 0.00 | 0.00 | 0.00 | 98 | 1046.4 |
| 20260905082050 | 21 | 358 | 0.0 | 0.0 | 0.00 | 0.00 | 0.00 | 98 | 1046.4 |
| 20260905081549 | 21 | 358 | 0.0 | 0.0 | 0.00 | 0.00 | 0.00 | 98 | 1046.5 |
| 20260905081045 | 21 | 358 | 0.0 | 0.0 | 0.00 | 0.00 | 0.00 | 98 | 1046.7 |
| 20260905080544 | 21 | 358 | 0.0 | 0.0 | 0.00 | 0.00 | 0.00 | 98 | 1046.7 |
| 20260905080040 | 21 | 358 | 0.0 | 0.0 | 0.00 | 0.00 | 0.00 | 98 | 1046.5 |
| 20260905075538 | 21 | 358 | 0.0 | 0.0 | 0.00 | 0.00 | 0.00 | 98 | 1046.4 |
| 20260905075033 | 21 | 358 | 0.0 | 0.0 | 0.00 | 0.00 | 0.00 | 98 | 1046.5 |
| 20260905074532 | 21 | 358 | 0.0 | 0.0 | 0.00 | 0.00 | 0.00 | 98 | 1046.7 |
| 20260905074028 | 21 | 358 | 0.0 | 0.0 | 0.00 | 0.00 | 0.00 | 98 | 1046.7 |
| 20260905073523 | 21 | 358 | 0.0 | 0.0 | 0.00 | 0.00 | 0.00 | 98 | 1046.8 |
| 20260905073020 | 21 | 358 | 0.0 | 0.0 | 0.00 | 0.00 | 0.00 | 98 | 1047.0 |
| 20260905072518 | 21 | 358 | 0.0 | 0.0 | 0.00 | 0.00 | 0.00 | 98 | 1047.1 |
| 20260905072014 | 21 | 358 | 0.0 | 0.0 | 0.00 | 0.00 | 0.00 | 98 | 1047.0 |
| 20260905071511 | 21 | 358 | 0.0 | 0.0 | 0.00 | 0.00 | 0.00 | 97 | 1047.1 |
| 20260905071011 | 21 | 358 | 0.0 | 0.0 | 0.00 | 0.00 | 0.00 | 97 | 1046.9 |
| 20260905070506 | 21 | 358 | 0.0 | 0.0 | 0.00 | 0.00 | 0.00 | 98 | 1047.1 |
| 20260905070001 | 21 | 358 | 0.0 | 0.0 | 0.00 | 0.00 | 0.00 | 97 | 1047.1 |
| 20260905065459 | 21 | 358 | 0.0 | 0.0 | 0.00 | 0.00 | 0.00 | 97 | 1047.1 |
| 20260905064955 | 22 | 358 | 0.0 | 0.0 | 0.00 | 0.00 | 0.00 | 97 | 1047.3 |
| 20260905064449 | 22 | 358 | 0.0 | 0.0 | 0.00 | 0.00 | 0.00 | 97 | 1047.2 |
| 20260905063944 | 22 | 358 | 0.0 | 0.0 | 0.00 | 0.00 | 0.00 | 97 | 1047.2 |
| 20260905063439 | 22 | 358 | 0.0 | 0.0 | 0.00 | 0.00 | 0.00 | 97 | 1047.3 |
| 20260905062936 | 21 | 358 | 0.0 | 0.0 | 0.00 | 0.00 | 0.00 | 97 | 1047.3 |
| 20260905062435 | 21 | 358 | 0.0 | 0.0 | 0.00 | 0.00 | 0.00 | 97 | 1047.3 |
| 20260905061931 | 22 | 358 | 0.0 | 0.0 | 0.00 | 0.00 | 0.00 | 97 | 1047.6 |
| 20260905061430 | 22 | 358 | 0.0 | 0.0 | 0.00 | 0.00 | 0.00 | 97 | 1047.5 |
| 20260905060930 | 22 | 358 | 0.0 | 0.0 | 0.00 | 0.00 | 0.00 | 97 | 1047.7 |
| 20260905060426 | 22 | 358 | 0.0 | 0.0 | 0.00 | 0.00 | 0.00 | 97 | 1047.8 |
| 20260905055925 | 22 | 358 | 0.0 | 0.0 | 0.00 | 0.00 | 0.00 | 97 | 1047.8 |
| 20260905055420 | 22 | 358 | 0.0 | 0.0 | 0.00 | 0.00 | 0.00 | 97 | 1047.8 |
| 20260905054919 | 22 | 358 | 0.0 | 0.0 | 0.00 | 0.00 | 0.00 | 97 | 1047.8 |
| 20260905054416 | 22 | 358 | 0.0 | 0.0 | 0.00 | 0.00 | 0.00 | 97 | 1047.9 |
| 20260905053915 | 22 | 358 | 0.0 | 0.0 | 0.00 | 0.00 | 0.00 | 97 | 1048.1 |
| 20260905053416 | 22 | 358 | 0.0 | 0.0 | 0.00 | 0.00 | 0.00 | 97 | 1048.0 |
| 20260905052911 | 22 | 358 | 0.0 | 0.0 | 0.00 | 0.00 | 0.00 | 97 | 1048.0 |
| 20260905052411 | 22 | 358 | 0.0 | 0.0 | 0.00 | 0.00 | 0.00 | 97 | 1048.1 |
| 20260905051910 | 22 | 358 | 0.0 | 0.0 | 0.00 | 0.00 | 0.00 | 97 | 1048.3 |
| 20260905051406 | 22 | 358 | 0.0 | 0.0 | 0.00 | 0.00 | 0.00 | 97 | 1048.1 |
| 20260905050904 | 22 | 358 | 0.0 | 0.0 | 0.00 | 0.00 | 0.00 | 97 | 1048.2 |
| 20260905050359 | 22 | 358 | 0.0 | 0.0 | 0.00 | 0.00 | 0.00 | 97 | 1048.2 |
| 20260905045854 | 22 | 358 | 0.0 | 0.0 | 0.00 | 0.00 | 0.00 | 97 | 1048.0 |
| 20260905045349 | 22 | 358 | 0.0 | 0.0 | 0.00 | 0.00 | 0.00 | 97 | 1048.1 |
| 20260905044845 | 22 | 358 | 0.0 | 0.0 | 0.00 | 0.00 | 0.00 | 96 | 1048.1 |
| 20260905044340 | 22 | 358 | 0.0 | 0.0 | 0.00 | 0.00 | 0.00 | 96 | 1048.0 |
| 20260905043838 | 22 | 358 | 1.6 | 1.6 | 0.00 | 0.00 | 0.00 | 96 | 1048.2 |
| 20260905043333 | 23 | 358 | 0.0 | 0.0 | 0.00 | 0.00 | 0.00 | 97 | 1047.9 |
| 20260905042829 | 23 | 358 | 0.0 | 0.0 | 0.00 | 0.00 | 0.00 | 97 | 1048.0 |
| 20260905042328 | 23 | 358 | 0.0 | 0.0 | 0.00 | 0.00 | 0.00 | 97 | 1047.8 |
| 20260905041823 | 23 | 358 | 0.0 | 0.0 | 0.00 | 0.00 | 0.00 | 97 | 1048.0 |
| 20260905041320 | 22 | 358 | 0.0 | 0.0 | 0.00 | 0.00 | 0.00 | 97 | 1047.9 |
| 20260905040820 | 22 | 359 | 0.0 | 0.0 | 0.00 | 0.00 | 0.00 | 97 | 1048.0 |